Year,Month,Day,Hour,Minute,Value (Times are PST for temperature in C)
2012,10,20,01,59,7.90
2012,10,20,02,00,7.90
2012,10,20,02,01,7.90
2012,10,20,02,02,7.90
2012,10,20,02,03,7.90
2012,10,20,02,04,7.90
2012,10,20,02,05,7.90
2012,10,20,02,06,7.90
2012,10,20,02,07,7.90
2012,10,20,02,08,7.90
2012,10,20,02,09,7.90
2012,10,20,02,10,7.90
2012,10,20,02,11,7.90
2012,10,20,02,12,7.90
2012,10,20,02,13,7.90
2012,10,20,02,14,7.90
2012,10,20,02,15,7.90
2012,10,20,02,16,7.90
2012,10,20,02,17,7.90
2012,10,20,02,18,7.90
2012,10,20,02,19,7.90
2012,10,20,02,20,7.90
2012,10,20,02,21,7.90
2012,10,20,02,22,7.90
2012,10,20,02,23,7.90
2012,10,20,02,24,7.90
2012,10,20,02,25,7.90
2012,10,20,02,26,7.90
2012,10,20,02,27,7.90
2012,10,20,02,28,7.90
2012,10,20,02,29,7.90
2012,10,20,02,30,7.50
2012,10,20,02,31,7.50
2012,10,20,02,32,7.50
2012,10,20,02,33,7.50
2012,10,20,02,34,7.50
2012,10,20,02,35,7.50
2012,10,20,02,36,7.50
2012,10,20,02,37,7.50
2012,10,20,02,38,7.50
2012,10,20,02,39,7.50
2012,10,20,02,40,7.50
2012,10,20,02,41,7.50
2012,10,20,02,42,7.50
2012,10,20,02,43,7.50
2012,10,20,02,44,7.50
2012,10,20,02,45,7.50
2012,10,20,02,46,7.50
2012,10,20,02,47,7.50
2012,10,20,02,48,7.50
2012,10,20,02,49,7.50
2012,10,20,02,50,7.50
2012,10,20,02,51,7.50
2012,10,20,02,52,7.50
2012,10,20,02,53,7.50
2012,10,20,02,54,7.50
2012,10,20,02,55,7.50
2012,10,20,02,56,7.50
2012,10,20,02,57,7.50
2012,10,20,02,58,7.50
2012,10,20,02,59,7.90
2012,10,20,03,00,7.90
2012,10,20,03,01,7.90
2012,10,20,03,02,7.90
2012,10,20,03,03,7.90
2012,10,20,03,04,7.90
2012,10,20,03,05,7.90
2012,10,20,03,06,7.90
2012,10,20,03,07,7.90
2012,10,20,03,08,7.90
2012,10,20,03,09,7.90
2012,10,20,03,10,7.90
2012,10,20,03,11,7.90
2012,10,20,03,12,7.90
2012,10,20,03,13,7.90
2012,10,20,03,14,7.90
2012,10,20,03,15,7.90
2012,10,20,03,16,7.90
2012,10,20,03,17,7.90
2012,10,20,03,18,7.90
2012,10,20,03,19,7.90
2012,10,20,03,20,7.90
2012,10,20,03,21,7.90
2012,10,20,03,22,7.90
2012,10,20,03,23,7.90
2012,10,20,03,24,7.90
2012,10,20,03,25,7.90
2012,10,20,03,26,7.90
2012,10,20,03,27,7.90
2012,10,20,03,28,7.90
2012,10,20,03,29,8.30
2012,10,20,03,30,8.30
2012,10,20,03,31,8.30
2012,10,20,03,32,8.30
2012,10,20,03,33,8.30
2012,10,20,03,34,8.30
2012,10,20,03,35,8.30
2012,10,20,03,36,8.30
2012,10,20,03,37,8.30
2012,10,20,03,38,8.30
2012,10,20,03,39,8.30
2012,10,20,03,40,8.30
2012,10,20,03,41,8.30
2012,10,20,03,42,8.30
2012,10,20,03,43,8.30
2012,10,20,03,44,8.30
2012,10,20,03,45,8.30
2012,10,20,03,46,8.30
2012,10,20,03,47,8.30
2012,10,20,03,48,8.30
2012,10,20,03,49,8.30
2012,10,20,03,50,8.30
2012,10,20,03,51,8.30
2012,10,20,03,52,8.30
2012,10,20,03,53,8.30
2012,10,20,03,54,8.30
2012,10,20,03,55,8.30
2012,10,20,03,56,8.30
2012,10,20,03,57,8.30
2012,10,20,03,58,8.30
2012,10,20,03,59,8.40
2012,10,20,04,00,8.40
2012,10,20,04,01,8.40
2012,10,20,04,02,8.40
2012,10,20,04,03,8.40
2012,10,20,04,04,8.40
2012,10,20,04,05,8.40
2012,10,20,04,06,8.40
2012,10,20,04,07,8.40
2012,10,20,04,08,8.40
2012,10,20,04,09,8.40
2012,10,20,04,10,8.40
2012,10,20,04,11,8.40
2012,10,20,04,12,8.40
2012,10,20,04,13,8.40
2012,10,20,04,14,8.40
2012,10,20,04,15,8.40
2012,10,20,04,16,8.40
2012,10,20,04,17,8.40
2012,10,20,04,18,8.40
2012,10,20,04,19,8.40
2012,10,20,04,20,8.40
2012,10,20,04,21,8.40
2012,10,20,04,22,8.40
2012,10,20,04,23,8.40
2012,10,20,04,24,8.40
2012,10,20,04,25,8.40
2012,10,20,04,26,8.40
2012,10,20,04,27,8.40
2012,10,20,04,28,8.40
2012,10,20,04,29,8.50
2012,10,20,04,30,8.50
2012,10,20,04,31,8.50
2012,10,20,04,32,8.50
2012,10,20,04,33,8.50
2012,10,20,04,34,8.50
2012,10,20,04,35,8.50
2012,10,20,04,36,8.50
2012,10,20,04,37,8.50
2012,10,20,04,38,8.50
2012,10,20,04,39,8.50
2012,10,20,04,40,8.50
2012,10,20,04,41,8.50
2012,10,20,04,42,8.50
2012,10,20,04,43,8.50
2012,10,20,04,44,8.50
2012,10,20,04,45,8.50
2012,10,20,04,46,8.50
2012,10,20,04,47,8.50
2012,10,20,04,48,8.50
2012,10,20,04,49,8.50
2012,10,20,04,50,8.50
2012,10,20,04,51,8.50
2012,10,20,04,52,8.50
2012,10,20,04,53,8.50
2012,10,20,04,54,8.50
2012,10,20,04,55,8.50
2012,10,20,04,56,8.50
2012,10,20,04,57,8.50
2012,10,20,04,58,8.50
2012,10,20,04,59,8.30
2012,10,20,05,00,8.30
2012,10,20,05,01,8.30
2012,10,20,05,02,8.30
2012,10,20,05,03,8.30
2012,10,20,05,04,8.30
2012,10,20,05,05,8.30
2012,10,20,05,06,8.30
2012,10,20,05,07,8.30
2012,10,20,05,08,8.30
2012,10,20,05,09,8.30
2012,10,20,05,10,8.30
2012,10,20,05,11,8.30
2012,10,20,05,12,8.30
2012,10,20,05,13,8.30
2012,10,20,05,14,8.30
2012,10,20,05,15,8.30
2012,10,20,05,16,8.30
2012,10,20,05,17,8.30
2012,10,20,05,18,8.30
2012,10,20,05,19,8.30
2012,10,20,05,20,8.30
2012,10,20,05,21,8.30
2012,10,20,05,22,8.30
2012,10,20,05,23,8.30
2012,10,20,05,24,8.30
2012,10,20,05,25,8.30
2012,10,20,05,26,8.30
2012,10,20,05,27,8.30
2012,10,20,05,28,8.30
2012,10,20,05,29,6.80
2012,10,20,05,30,6.80
2012,10,20,05,31,6.80
2012,10,20,05,32,6.80
2012,10,20,05,33,6.80
2012,10,20,05,34,6.80
2012,10,20,05,35,6.80
2012,10,20,05,36,6.80
2012,10,20,05,37,6.80
2012,10,20,05,38,6.80
2012,10,20,05,39,6.80
2012,10,20,05,40,6.80
2012,10,20,05,41,6.80
2012,10,20,05,42,6.80
2012,10,20,05,43,6.80
2012,10,20,05,44,6.80
2012,10,20,05,45,6.80
2012,10,20,05,46,6.80
2012,10,20,05,47,6.80
2012,10,20,05,48,6.80
2012,10,20,05,49,6.80
2012,10,20,05,50,6.80
2012,10,20,05,51,6.80
2012,10,20,05,52,6.80
2012,10,20,05,53,6.80
2012,10,20,05,54,6.80
2012,10,20,05,55,6.80
2012,10,20,05,56,6.80
2012,10,20,05,57,6.80
2012,10,20,05,58,6.80
2012,10,20,05,59,6.90
2012,10,20,06,00,6.90
2012,10,20,06,01,6.90
2012,10,20,06,02,6.90
2012,10,20,06,03,6.90
2012,10,20,06,04,6.90
2012,10,20,06,05,6.90
2012,10,20,06,06,6.90
2012,10,20,06,07,6.90
2012,10,20,06,08,6.90
2012,10,20,06,09,6.90
2012,10,20,06,10,6.90
2012,10,20,06,11,6.90
2012,10,20,06,12,6.90
2012,10,20,06,13,6.90
2012,10,20,06,14,6.90
2012,10,20,06,15,6.90
2012,10,20,06,16,6.90
2012,10,20,06,17,6.90
2012,10,20,06,18,6.90
2012,10,20,06,19,6.90
2012,10,20,06,20,6.90
2012,10,20,06,21,6.90
2012,10,20,06,22,6.90
2012,10,20,06,23,6.90
2012,10,20,06,24,6.90
2012,10,20,06,25,6.90
2012,10,20,06,26,6.90
2012,10,20,06,27,6.90
2012,10,20,06,28,6.90
2012,10,20,06,29,7.30
2012,10,20,06,30,7.30
2012,10,20,06,31,7.30
2012,10,20,06,32,7.30
2012,10,20,06,33,7.30
2012,10,20,06,34,7.30
2012,10,20,06,35,7.30
2012,10,20,06,36,7.30
2012,10,20,06,37,7.30
2012,10,20,06,38,7.30
2012,10,20,06,39,7.30
2012,10,20,06,40,7.30
2012,10,20,06,41,7.30
2012,10,20,06,42,7.30
2012,10,20,06,43,7.30
2012,10,20,06,44,7.30
2012,10,20,06,45,7.30
2012,10,20,06,46,7.30
2012,10,20,06,47,7.30
2012,10,20,06,48,7.30
2012,10,20,06,49,7.30
2012,10,20,06,50,7.30
2012,10,20,06,51,7.30
2012,10,20,06,52,7.30
2012,10,20,06,53,7.30
2012,10,20,06,54,7.30
2012,10,20,06,55,7.30
2012,10,20,06,56,7.30
2012,10,20,06,57,7.30
2012,10,20,06,58,7.30
2012,10,20,06,59,7.10
2012,10,20,07,00,7.10
2012,10,20,07,01,7.10
2012,10,20,07,02,7.10
2012,10,20,07,03,7.10
2012,10,20,07,04,7.10
2012,10,20,07,05,7.10
2012,10,20,07,06,7.10
2012,10,20,07,07,7.10
2012,10,20,07,08,7.10
2012,10,20,07,09,7.10
2012,10,20,07,10,7.10
2012,10,20,07,11,7.10
2012,10,20,07,12,7.10
2012,10,20,07,13,7.10
2012,10,20,07,14,7.10
2012,10,20,07,15,7.10
2012,10,20,07,16,7.10
2012,10,20,07,17,7.10
2012,10,20,07,18,7.10
2012,10,20,07,19,7.10
2012,10,20,07,20,7.10
2012,10,20,07,21,7.10
2012,10,20,07,22,7.10
2012,10,20,07,23,7.10
2012,10,20,07,24,7.10
2012,10,20,07,25,7.10
2012,10,20,07,26,7.10
2012,10,20,07,27,7.10
2012,10,20,07,28,7.10
2012,10,20,07,29,6.70
2012,10,20,07,30,6.70
2012,10,20,07,31,6.70
2012,10,20,07,32,6.70
2012,10,20,07,33,6.70
2012,10,20,07,34,6.70
2012,10,20,07,35,6.70
2012,10,20,07,36,6.70
2012,10,20,07,37,6.70
2012,10,20,07,38,6.70
2012,10,20,07,39,6.70
2012,10,20,07,40,6.70
2012,10,20,07,41,6.70
2012,10,20,07,42,6.70
2012,10,20,07,43,6.70
2012,10,20,07,44,6.70
2012,10,20,07,45,6.70
2012,10,20,07,46,6.70
2012,10,20,07,47,6.70
2012,10,20,07,48,6.70
2012,10,20,07,49,6.70
2012,10,20,07,50,6.70
2012,10,20,07,51,6.70
2012,10,20,07,52,6.70
2012,10,20,07,53,6.70
2012,10,20,07,54,6.70
2012,10,20,07,55,6.70
2012,10,20,07,56,6.70
2012,10,20,07,57,6.70
2012,10,20,07,58,6.70
2012,10,20,07,59,7.20
2012,10,20,08,00,7.20
2012,10,20,08,01,7.20
2012,10,20,08,02,7.20
2012,10,20,08,03,7.20
2012,10,20,08,04,7.20
2012,10,20,08,05,7.20
2012,10,20,08,06,7.20
2012,10,20,08,07,7.20
2012,10,20,08,08,7.20
2012,10,20,08,09,7.20
2012,10,20,08,10,7.20
2012,10,20,08,11,7.20
2012,10,20,08,12,7.20
2012,10,20,08,13,7.20
2012,10,20,08,14,7.20
2012,10,20,08,15,7.20
2012,10,20,08,16,7.20
2012,10,20,08,17,7.20
2012,10,20,08,18,7.20
2012,10,20,08,19,7.20
2012,10,20,08,20,7.20
2012,10,20,08,21,7.20
2012,10,20,08,22,7.20
2012,10,20,08,23,7.20
2012,10,20,08,24,7.20
2012,10,20,08,25,7.20
2012,10,20,08,26,7.20
2012,10,20,08,27,7.20
2012,10,20,08,28,7.20
2012,10,20,08,29,7.40
2012,10,20,08,30,7.40
2012,10,20,08,31,7.40
2012,10,20,08,32,7.40
2012,10,20,08,33,7.40
2012,10,20,08,34,7.40
2012,10,20,08,35,7.40
2012,10,20,08,36,7.40
2012,10,20,08,37,7.40
2012,10,20,08,38,7.40
2012,10,20,08,39,7.40
2012,10,20,08,40,7.40
2012,10,20,08,41,7.40
2012,10,20,08,42,7.40
2012,10,20,08,43,7.40
2012,10,20,08,44,7.40
2012,10,20,08,45,7.40
2012,10,20,08,46,7.40
2012,10,20,08,47,7.40
2012,10,20,08,48,7.40
2012,10,20,08,49,7.40
2012,10,20,08,50,7.40
2012,10,20,08,51,7.40
2012,10,20,08,52,7.40
2012,10,20,08,53,7.40
2012,10,20,08,54,7.40
2012,10,20,08,55,7.40
2012,10,20,08,56,7.40
2012,10,20,08,57,7.40
2012,10,20,08,58,7.40
2012,10,20,08,59,7.70
2012,10,20,09,00,7.70
2012,10,20,09,01,7.70
2012,10,20,09,02,7.70
2012,10,20,09,03,7.70
2012,10,20,09,04,7.70
2012,10,20,09,05,7.70
2012,10,20,09,06,7.70
2012,10,20,09,07,7.70
2012,10,20,09,08,7.70
2012,10,20,09,09,7.70
2012,10,20,09,10,7.70
2012,10,20,09,11,7.70
2012,10,20,09,12,7.70
2012,10,20,09,13,7.70
2012,10,20,09,14,7.70
2012,10,20,09,15,7.70
2012,10,20,09,16,7.70
2012,10,20,09,17,7.70
2012,10,20,09,18,7.70
2012,10,20,09,19,7.70
2012,10,20,09,20,7.70
2012,10,20,09,21,7.70
2012,10,20,09,22,7.70
2012,10,20,09,23,7.70
2012,10,20,09,24,7.70
2012,10,20,09,25,7.70
2012,10,20,09,26,7.70
2012,10,20,09,27,7.70
2012,10,20,09,28,7.70
2012,10,20,09,29,8.20
2012,10,20,09,30,8.20
2012,10,20,09,31,8.20
2012,10,20,09,32,8.20
2012,10,20,09,33,8.20
2012,10,20,09,34,8.20
2012,10,20,09,35,8.20
2012,10,20,09,36,8.20
2012,10,20,09,37,8.20
2012,10,20,09,38,8.20
2012,10,20,09,39,8.20
2012,10,20,09,40,8.20
2012,10,20,09,41,8.20
2012,10,20,09,42,8.20
2012,10,20,09,43,8.20
2012,10,20,09,44,8.20
2012,10,20,09,45,8.20
2012,10,20,09,46,8.20
2012,10,20,09,47,8.20
2012,10,20,09,48,8.20
2012,10,20,09,49,8.20
2012,10,20,09,50,8.20
2012,10,20,09,51,8.20
2012,10,20,09,52,8.20
2012,10,20,09,53,8.20
2012,10,20,09,54,8.20
2012,10,20,09,55,8.20
2012,10,20,09,56,8.20
2012,10,20,09,57,8.20
2012,10,20,09,58,8.20
2012,10,20,09,59,8.60
2012,10,20,10,00,8.60
2012,10,20,10,01,8.60
2012,10,20,10,02,8.60
2012,10,20,10,03,8.60
2012,10,20,10,04,8.60
2012,10,20,10,05,8.60
2012,10,20,10,06,8.60
2012,10,20,10,07,8.60
2012,10,20,10,08,8.60
2012,10,20,10,09,8.60
2012,10,20,10,10,8.60
2012,10,20,10,11,8.60
2012,10,20,10,12,8.60
2012,10,20,10,13,8.60
2012,10,20,10,14,8.60
2012,10,20,10,15,8.60
2012,10,20,10,16,8.60
2012,10,20,10,17,8.60
2012,10,20,10,18,8.60
2012,10,20,10,19,8.60
2012,10,20,10,20,8.60
2012,10,20,10,21,8.60
2012,10,20,10,22,8.60
2012,10,20,10,23,8.60
2012,10,20,10,24,8.60
2012,10,20,10,25,8.60
2012,10,20,10,26,8.60
2012,10,20,10,27,8.60
2012,10,20,10,28,8.60
2012,10,20,10,29,8.80
2012,10,20,10,30,8.80
2012,10,20,10,31,8.80
2012,10,20,10,32,8.80
2012,10,20,10,33,8.80
2012,10,20,10,34,8.80
2012,10,20,10,35,8.80
2012,10,20,10,36,8.80
2012,10,20,10,37,8.80
2012,10,20,10,38,8.80
2012,10,20,10,39,8.80
2012,10,20,10,40,8.80
2012,10,20,10,41,8.80
2012,10,20,10,42,8.80
2012,10,20,10,43,8.80
2012,10,20,10,44,8.80
2012,10,20,10,45,8.80
2012,10,20,10,46,8.80
2012,10,20,10,47,8.80
2012,10,20,10,48,8.80
2012,10,20,10,49,8.80
2012,10,20,10,50,8.80
2012,10,20,10,51,8.80
2012,10,20,10,52,8.80
2012,10,20,10,53,8.80
2012,10,20,10,54,8.80
2012,10,20,10,55,8.80
2012,10,20,10,56,8.80
2012,10,20,10,57,8.80
2012,10,20,10,58,8.80
2012,10,20,10,59,8.80
2012,10,20,11,00,8.80
2012,10,20,11,01,8.80
2012,10,20,11,02,8.80
2012,10,20,11,03,8.80
2012,10,20,11,04,8.80
2012,10,20,11,05,8.80
2012,10,20,11,06,8.80
2012,10,20,11,07,8.80
2012,10,20,11,08,8.80
2012,10,20,11,09,8.80
2012,10,20,11,10,8.80
2012,10,20,11,11,8.80
2012,10,20,11,12,8.80
2012,10,20,11,13,8.80
2012,10,20,11,14,8.80
2012,10,20,11,15,8.80
2012,10,20,11,16,8.80
2012,10,20,11,17,8.80
2012,10,20,11,18,8.80
2012,10,20,11,19,8.80
2012,10,20,11,20,8.80
2012,10,20,11,21,8.80
2012,10,20,11,22,8.80
2012,10,20,11,23,8.80
2012,10,20,11,24,8.80
2012,10,20,11,25,8.80
2012,10,20,11,26,8.80
2012,10,20,11,27,8.80
2012,10,20,11,28,8.80
2012,10,20,11,29,8.70
2012,10,20,11,30,8.70
2012,10,20,11,31,8.70
2012,10,20,11,32,8.70
2012,10,20,11,33,8.70
2012,10,20,11,34,8.70
2012,10,20,11,35,8.70
2012,10,20,11,36,8.70
2012,10,20,11,37,8.70
2012,10,20,11,38,8.70
2012,10,20,11,39,8.70
2012,10,20,11,40,8.70
2012,10,20,11,41,8.70
2012,10,20,11,42,8.70
2012,10,20,11,43,8.70
2012,10,20,11,44,8.70
2012,10,20,11,45,8.70
2012,10,20,11,46,8.70
2012,10,20,11,47,8.70
2012,10,20,11,48,8.70
2012,10,20,11,49,8.70
2012,10,20,11,50,8.70
2012,10,20,11,51,8.70
2012,10,20,11,52,8.70
2012,10,20,11,53,8.70
2012,10,20,11,54,8.70
2012,10,20,11,55,8.70
2012,10,20,11,56,8.70
2012,10,20,11,57,8.70
2012,10,20,11,58,8.70
2012,10,20,11,59,8.30
2012,10,20,12,00,8.30
2012,10,20,12,01,8.30
2012,10,20,12,02,8.30
2012,10,20,12,03,8.30
2012,10,20,12,04,8.30
2012,10,20,12,05,8.30
2012,10,20,12,06,8.30
2012,10,20,12,07,8.30
2012,10,20,12,08,8.30
2012,10,20,12,09,8.30
2012,10,20,12,10,8.30
2012,10,20,12,11,8.30
2012,10,20,12,12,8.30
2012,10,20,12,13,8.30
2012,10,20,12,14,8.30
2012,10,20,12,15,8.30
2012,10,20,12,16,8.30
2012,10,20,12,17,8.30
2012,10,20,12,18,8.30
2012,10,20,12,19,8.30
2012,10,20,12,20,8.30
2012,10,20,12,21,8.30
2012,10,20,12,22,8.30
2012,10,20,12,23,8.30
2012,10,20,12,24,8.30
2012,10,20,12,25,8.30
2012,10,20,12,26,8.30
2012,10,20,12,27,8.30
2012,10,20,12,28,8.30
2012,10,20,12,29,7.50
2012,10,20,12,30,7.50
2012,10,20,12,31,7.50
2012,10,20,12,32,7.50
2012,10,20,12,33,7.50
2012,10,20,12,34,7.50
2012,10,20,12,35,7.50
2012,10,20,12,36,7.50
2012,10,20,12,37,7.50
2012,10,20,12,38,7.50
2012,10,20,12,39,7.50
2012,10,20,12,40,7.50
2012,10,20,12,41,7.50
2012,10,20,12,42,7.50
2012,10,20,12,43,7.50
2012,10,20,12,44,7.50
2012,10,20,12,45,7.50
2012,10,20,12,46,7.50
2012,10,20,12,47,7.50
2012,10,20,12,48,7.50
2012,10,20,12,49,7.50
2012,10,20,12,50,7.50
2012,10,20,12,51,7.50
2012,10,20,12,52,7.50
2012,10,20,12,53,7.50
2012,10,20,12,54,7.50
2012,10,20,12,55,7.50
2012,10,20,12,56,7.50
2012,10,20,12,57,7.50
2012,10,20,12,58,7.50
2012,10,20,12,59,7.70
2012,10,20,13,00,7.70
2012,10,20,13,01,7.70
2012,10,20,13,02,7.70
2012,10,20,13,03,7.70
2012,10,20,13,04,7.70
2012,10,20,13,05,7.70
2012,10,20,13,06,7.70
2012,10,20,13,07,7.70
2012,10,20,13,08,7.70
2012,10,20,13,09,7.70
2012,10,20,13,10,7.70
2012,10,20,13,11,7.70
2012,10,20,13,12,7.70
2012,10,20,13,13,7.70
2012,10,20,13,14,7.70
2012,10,20,13,15,7.70
2012,10,20,13,16,7.70
2012,10,20,13,17,7.70
2012,10,20,13,18,7.70
2012,10,20,13,19,7.70
2012,10,20,13,20,7.70
2012,10,20,13,21,7.70
2012,10,20,13,22,7.70
2012,10,20,13,23,7.70
2012,10,20,13,24,7.70
2012,10,20,13,25,7.70
2012,10,20,13,26,7.70
2012,10,20,13,27,7.70
2012,10,20,13,28,7.70
2012,10,20,13,29,7.70
2012,10,20,13,30,7.70
2012,10,20,13,31,7.70
2012,10,20,13,32,7.70
2012,10,20,13,33,7.70
2012,10,20,13,34,7.70
2012,10,20,13,35,7.70
2012,10,20,13,36,7.70
2012,10,20,13,37,7.70
2012,10,20,13,38,7.70
2012,10,20,13,39,7.70
2012,10,20,13,40,7.70
2012,10,20,13,41,7.70
2012,10,20,13,42,7.70
2012,10,20,13,43,7.70
2012,10,20,13,44,7.70
2012,10,20,13,45,7.70
2012,10,20,13,46,7.70
2012,10,20,13,47,7.70
2012,10,20,13,48,7.70
2012,10,20,13,49,7.70
2012,10,20,13,50,7.70
2012,10,20,13,51,7.70
2012,10,20,13,52,7.70
2012,10,20,13,53,7.70
2012,10,20,13,54,7.70
2012,10,20,13,55,7.70
2012,10,20,13,56,7.70
2012,10,20,13,57,7.70
2012,10,20,13,58,7.70
2012,10,20,13,59,8.20
2012,10,20,14,00,8.20
2012,10,20,14,01,8.20
2012,10,20,14,02,8.20
2012,10,20,14,03,8.20
2012,10,20,14,04,8.20
2012,10,20,14,05,8.20
2012,10,20,14,06,8.20
2012,10,20,14,07,8.20
2012,10,20,14,08,8.20
2012,10,20,14,09,8.20
2012,10,20,14,10,8.20
2012,10,20,14,11,8.20
2012,10,20,14,12,8.20
2012,10,20,14,13,8.20
2012,10,20,14,14,8.20
2012,10,20,14,15,8.20
2012,10,20,14,16,8.20
2012,10,20,14,17,8.20
2012,10,20,14,18,8.20
2012,10,20,14,19,8.20
2012,10,20,14,20,8.20
2012,10,20,14,21,8.20
2012,10,20,14,22,8.20
2012,10,20,14,23,8.20
2012,10,20,14,24,8.20
2012,10,20,14,25,8.20
2012,10,20,14,26,8.20
2012,10,20,14,27,8.20
2012,10,20,14,28,8.20
2012,10,20,14,29,8.30
2012,10,20,14,30,8.30
2012,10,20,14,31,8.30
2012,10,20,14,32,8.30
2012,10,20,14,33,8.30
2012,10,20,14,34,8.30
2012,10,20,14,35,8.30
2012,10,20,14,36,8.30
2012,10,20,14,37,8.30
2012,10,20,14,38,8.30
2012,10,20,14,39,8.30
2012,10,20,14,40,8.30
2012,10,20,14,41,8.30
2012,10,20,14,42,8.30
2012,10,20,14,43,8.30
2012,10,20,14,44,8.30
2012,10,20,14,45,8.30
2012,10,20,14,46,8.30
2012,10,20,14,47,8.30
2012,10,20,14,48,8.30
2012,10,20,14,49,8.30
2012,10,20,14,50,8.30
2012,10,20,14,51,8.30
2012,10,20,14,52,8.30
2012,10,20,14,53,8.30
2012,10,20,14,54,8.30
2012,10,20,14,55,8.30
2012,10,20,14,56,8.30
2012,10,20,14,57,8.30
2012,10,20,14,58,8.30
2012,10,20,14,59,8.20
2012,10,20,15,00,8.20
2012,10,20,15,01,8.20
2012,10,20,15,02,8.20
2012,10,20,15,03,8.20
2012,10,20,15,04,8.20
2012,10,20,15,05,8.20
2012,10,20,15,06,8.20
2012,10,20,15,07,8.20
2012,10,20,15,08,8.20
2012,10,20,15,09,8.20
2012,10,20,15,10,8.20
2012,10,20,15,11,8.20
2012,10,20,15,12,8.20
2012,10,20,15,13,8.20
2012,10,20,15,14,8.20
2012,10,20,15,15,8.20
2012,10,20,15,16,8.20
2012,10,20,15,17,8.20
2012,10,20,15,18,8.20
2012,10,20,15,19,8.20
2012,10,20,15,20,8.20
2012,10,20,15,21,8.20
2012,10,20,15,22,8.20
2012,10,20,15,23,8.20
2012,10,20,15,24,8.20
2012,10,20,15,25,8.20
2012,10,20,15,26,8.20
2012,10,20,15,27,8.20
2012,10,20,15,28,8.20
2012,10,20,15,29,7.80
2012,10,20,15,30,7.80
2012,10,20,15,31,7.80
2012,10,20,15,32,7.80
2012,10,20,15,33,7.80
2012,10,20,15,34,7.80
2012,10,20,15,35,7.80
2012,10,20,15,36,7.80
2012,10,20,15,37,7.80
2012,10,20,15,38,7.80
2012,10,20,15,39,7.80
2012,10,20,15,40,7.80
2012,10,20,15,41,7.80
2012,10,20,15,42,7.80
2012,10,20,15,43,7.80
2012,10,20,15,44,7.80
2012,10,20,15,45,7.80
2012,10,20,15,46,7.80
2012,10,20,15,47,7.80
2012,10,20,15,48,7.80
2012,10,20,15,49,7.80
2012,10,20,15,50,7.80
2012,10,20,15,51,7.80
2012,10,20,15,52,7.80
2012,10,20,15,53,7.80
2012,10,20,15,54,7.80
2012,10,20,15,55,7.80
2012,10,20,15,56,7.80
2012,10,20,15,57,7.80
2012,10,20,15,58,7.80
2012,10,20,15,59,7.70
2012,10,20,16,00,7.70
2012,10,20,16,01,7.70
2012,10,20,16,02,7.70
2012,10,20,16,03,7.70
2012,10,20,16,04,7.70
2012,10,20,16,05,7.70
2012,10,20,16,06,7.70
2012,10,20,16,07,7.70
2012,10,20,16,08,7.70
2012,10,20,16,09,7.70
2012,10,20,16,10,7.70
2012,10,20,16,11,7.70
2012,10,20,16,12,7.70
2012,10,20,16,13,7.70
2012,10,20,16,14,7.70
2012,10,20,16,15,7.70
2012,10,20,16,16,7.70
2012,10,20,16,17,7.70
2012,10,20,16,18,7.70
2012,10,20,16,19,7.70
2012,10,20,16,20,7.70
2012,10,20,16,21,7.70
2012,10,20,16,22,7.70
2012,10,20,16,23,7.70
2012,10,20,16,24,7.70
2012,10,20,16,25,7.70
2012,10,20,16,26,7.70
2012,10,20,16,27,7.70
2012,10,20,16,28,7.70
2012,10,20,16,29,7.70
2012,10,20,16,30,7.70
2012,10,20,16,31,7.70
2012,10,20,16,32,7.70
2012,10,20,16,33,7.70
2012,10,20,16,34,7.70
2012,10,20,16,35,7.70
2012,10,20,16,36,7.70
2012,10,20,16,37,7.70
2012,10,20,16,38,7.70
2012,10,20,16,39,7.70
2012,10,20,16,40,7.70
2012,10,20,16,41,7.70
2012,10,20,16,42,7.70
2012,10,20,16,43,7.70
2012,10,20,16,44,7.70
2012,10,20,16,45,7.70
2012,10,20,16,46,7.70
2012,10,20,16,47,7.70
2012,10,20,16,48,7.70
2012,10,20,16,49,7.70
2012,10,20,16,50,7.70
2012,10,20,16,51,7.70
2012,10,20,16,52,7.70
2012,10,20,16,53,7.70
2012,10,20,16,54,7.70
2012,10,20,16,55,7.70
2012,10,20,16,56,7.70
2012,10,20,16,57,7.70
2012,10,20,16,58,7.70
2012,10,20,16,59,7.60
2012,10,20,17,00,7.60
2012,10,20,17,01,7.60
2012,10,20,17,02,7.60
2012,10,20,17,03,7.60
2012,10,20,17,04,7.60
2012,10,20,17,05,7.60
2012,10,20,17,06,7.60
2012,10,20,17,07,7.60
2012,10,20,17,08,7.60
2012,10,20,17,09,7.60
2012,10,20,17,10,7.60
2012,10,20,17,11,7.60
2012,10,20,17,12,7.60
2012,10,20,17,13,7.60
2012,10,20,17,14,7.60
2012,10,20,17,15,7.60
2012,10,20,17,16,7.60
2012,10,20,17,17,7.60
2012,10,20,17,18,7.60
2012,10,20,17,19,7.60
2012,10,20,17,20,7.60
2012,10,20,17,21,7.60
2012,10,20,17,22,7.60
2012,10,20,17,23,7.60
2012,10,20,17,24,7.60
2012,10,20,17,25,7.60
2012,10,20,17,26,7.60
2012,10,20,17,27,7.60
2012,10,20,17,28,7.60
2012,10,20,17,29,7.60
2012,10,20,17,30,7.60
2012,10,20,17,31,7.60
2012,10,20,17,32,7.60
2012,10,20,17,33,7.60
2012,10,20,17,34,7.60
2012,10,20,17,35,7.60
2012,10,20,17,36,7.60
2012,10,20,17,37,7.60
2012,10,20,17,38,7.60
2012,10,20,17,39,7.60
2012,10,20,17,40,7.60
2012,10,20,17,41,7.60
2012,10,20,17,42,7.60
2012,10,20,17,43,7.60
2012,10,20,17,44,7.60
2012,10,20,17,45,7.60
2012,10,20,17,46,7.60
2012,10,20,17,47,7.60
2012,10,20,17,48,7.60
2012,10,20,17,49,7.60
2012,10,20,17,50,7.60
2012,10,20,17,51,7.60
2012,10,20,17,52,7.60
2012,10,20,17,53,7.60
2012,10,20,17,54,7.60
2012,10,20,17,55,7.60
2012,10,20,17,56,7.60
2012,10,20,17,57,7.60
2012,10,20,17,58,7.60
2012,10,20,17,59,7.30
2012,10,20,18,00,7.30
2012,10,20,18,01,7.30
2012,10,20,18,02,7.30
2012,10,20,18,03,7.30
2012,10,20,18,04,7.30
2012,10,20,18,05,7.30
2012,10,20,18,06,7.30
2012,10,20,18,07,7.30
2012,10,20,18,08,7.30
2012,10,20,18,09,7.30
2012,10,20,18,10,7.30
2012,10,20,18,11,7.30
2012,10,20,18,12,7.30
2012,10,20,18,13,7.30
2012,10,20,18,14,7.30
2012,10,20,18,15,7.30
2012,10,20,18,16,7.30
2012,10,20,18,17,7.30
2012,10,20,18,18,7.30
2012,10,20,18,19,7.30
2012,10,20,18,20,7.30
2012,10,20,18,21,7.30
2012,10,20,18,22,7.30
2012,10,20,18,23,7.30
2012,10,20,18,24,7.30
2012,10,20,18,25,7.30
2012,10,20,18,26,7.30
2012,10,20,18,27,7.30
2012,10,20,18,28,7.30
2012,10,20,18,29,7.30
2012,10,20,18,30,7.30
2012,10,20,18,31,7.30
2012,10,20,18,32,7.30
2012,10,20,18,33,7.30
2012,10,20,18,34,7.30
2012,10,20,18,35,7.30
2012,10,20,18,36,7.30
2012,10,20,18,37,7.30
2012,10,20,18,38,7.30
2012,10,20,18,39,7.30
2012,10,20,18,40,7.30
2012,10,20,18,41,7.30
2012,10,20,18,42,7.30
2012,10,20,18,43,7.30
2012,10,20,18,44,7.30
2012,10,20,18,45,7.30
2012,10,20,18,46,7.30
2012,10,20,18,47,7.30
2012,10,20,18,48,7.30
2012,10,20,18,49,7.30
2012,10,20,18,50,7.30
2012,10,20,18,51,7.30
2012,10,20,18,52,7.30
2012,10,20,18,53,7.30
2012,10,20,18,54,7.30
2012,10,20,18,55,7.30
2012,10,20,18,56,7.30
2012,10,20,18,57,7.30
2012,10,20,18,58,7.30
2012,10,20,18,59,6.80
2012,10,20,19,00,6.80
2012,10,20,19,01,6.80
2012,10,20,19,02,6.80
2012,10,20,19,03,6.80
2012,10,20,19,04,6.80
2012,10,20,19,05,6.80
2012,10,20,19,06,6.80
2012,10,20,19,07,6.80
2012,10,20,19,08,6.80
2012,10,20,19,09,6.80
2012,10,20,19,10,6.80
2012,10,20,19,11,6.80
2012,10,20,19,12,6.80
2012,10,20,19,13,6.80
2012,10,20,19,14,6.80
2012,10,20,19,15,6.80
2012,10,20,19,16,6.80
2012,10,20,19,17,6.80
2012,10,20,19,18,6.80
2012,10,20,19,19,6.80
2012,10,20,19,20,6.80
2012,10,20,19,21,6.80
2012,10,20,19,22,6.80
2012,10,20,19,23,6.80
2012,10,20,19,24,6.80
2012,10,20,19,25,6.80
2012,10,20,19,26,6.80
2012,10,20,19,27,6.80
2012,10,20,19,28,6.80
2012,10,20,19,29,6.30
2012,10,20,19,30,6.30
2012,10,20,19,31,6.30
2012,10,20,19,32,6.30
2012,10,20,19,33,6.30
2012,10,20,19,34,6.30
2012,10,20,19,35,6.30
2012,10,20,19,36,6.30
2012,10,20,19,37,6.30
2012,10,20,19,38,6.30
2012,10,20,19,39,6.30
2012,10,20,19,40,6.30
2012,10,20,19,41,6.30
2012,10,20,19,42,6.30
2012,10,20,19,43,6.30
2012,10,20,19,44,6.30
2012,10,20,19,45,6.30
2012,10,20,19,46,6.30
2012,10,20,19,47,6.30
2012,10,20,19,48,6.30
2012,10,20,19,49,6.30
2012,10,20,19,50,6.30
2012,10,20,19,51,6.30
2012,10,20,19,52,6.30
2012,10,20,19,53,6.30
2012,10,20,19,54,6.30
2012,10,20,19,55,6.30
2012,10,20,19,56,6.30
2012,10,20,19,57,6.30
2012,10,20,19,58,6.30
2012,10,20,19,59,6.20
2012,10,20,20,00,6.20
2012,10,20,20,01,6.20
2012,10,20,20,02,6.20
2012,10,20,20,03,6.20
2012,10,20,20,04,6.20
2012,10,20,20,05,6.20